Location: Mount Kobau Star Party
(49.1167°N, 119.7333°W)
Time: 12:37:14
(UTC-07:00)

ARIANE 6 FM1 Upper Stage - Pass Details

Date: 15 April 2026
Orbit: 526 x 601 km, 62.0° (Epoch: 18 May)

Event Time Altitude Azimuth Distance (km) Brightness Sun altitude
Rises 00:14:17 0° 312° (NW) 2,685 6.9 -30.3°
Reaches altitude 10° 00:17:20 10° 337° (NNW) 1,783 6.1 -30.4°
Maximum altitude 00:19:40 15° 13° (NNE) 1,492 5.5 -30.4°
Enters shadow 00:21:53 10° 47° (NE) 1,750 5.5 -30.5°
